{"data":{"norad_id":62250,"epoch":"2026-05-25T01:49:26.122656Z","epoch_age_seconds":61747,"freshness":"FRESH","line1":"1 62250U 24232P   26145.07599679  .00000101  00000+0  13694-3 0  9995","line2":"2 62250  89.0101  24.8197 0016211  82.7345 277.5648 13.51007860 89891","mean_motion":13.5100786,"eccentricity":0.0016211,"inclination_deg":89.0101,"raan_deg":24.8197,"arg_perigee_deg":82.7345,"mean_anomaly_deg":277.5648,"bstar":0.00013694,"rev_number":8989,"period_min":106.58709269093,"perigee_km":1056.480873803,"apogee_km":1080.6245311563,"semimajor_km":7446.6897024797,"source":"CELESTRAK","updated_at":"2026-05-25T13:38:02.868742Z"}}